EXPRESS-AT2

Last updated on Thu Oct 30 2025 00:02:49 GMT+0000 (Coordinated Universal Time)

1 39613U 14010B 25302.57013823 -.00000271 00000+0 00000+0 0 9998 2 39613 0.0174 249.5951 0000227 222.1456 271.5464 1.00272317 42181
UTC large
Height (km)
Speed (km/s)
/
Latitude / Longitude
Inclination (degrees)
Orbital Period (minutes)
Azimuth
Elevation
Range (km)
Doppler Factor

Next 0 passes for location: London (51.5072 / 0.1276)

Sorry there are no passes over London.